Kalamata, Greece

7:05 AM EEST on June 27, 2017 (GMT +0300)
Kalamata Air Base

Weather History for LGKL - March, 2013

Change the Weather History Date:

Monday, March 25, 2013

  Actual Average Record
Temperature  
Mean Temperature 58 °F -  
Max Temperature 71 °F 67 °F 75 °F (2001)
Min Temperature 46 °F 47 °F 28 °F (2003)
Degree Days  
Heating Degree Days 6    
Growing Degree Days 8 (Base 50)    
Moisture  
Dew Point 48 °F    
Average Humidity 69    
Maximum Humidity 88    
Minimum Humidity 33    
Precipitation  
Precipitation 0.00 in 0.07 in - ()
Sea Level Pressure  
Sea Level Pressure 29.70 in    
Wind  
Wind Speed 8 mph ()    
Max Wind Speed 30 mph    
Max Gust Speed 43 mph    
Visibility 6.0 miles    
Events      
Averages and records for this station are not official NWS values.
T = Trace of Precipitation, MM = Missing Value Source: Averaged Metar Reports

Daily Weather History Graph

Daily Weather History Graph

Search for Another Location

Airport or City:

Trip Planner

Search our weather history database for the weather conditions in past years. The results will help you decide how hot, cold, wet, or windy it might be!

Date:

Astronomy

Mar. 25, 2013 Rise Set
Actual Time 6:28 AM EET 6:48 PM EET
Civil Twilight 6:02 AM EET 7:14 PM EET
Nautical Twilight 5:31 AM EET 7:44 PM EET
Astronomical Twilight 5:00 AM EET 8:15 PM EET
Moon 5:01 PM EET (3/25) 4:58 AM EET (3/25)
Length of Visible Light 13h 12m
Length of Day
12h 20m
Waxing Gibbous, 95% of the Moon is Illuminated
Mar 25
Waxing Gibbous
Mar 27
Full
Apr 3
Last Quarter
Apr 10
New
Apr 18
First Quarter

Hourly Weather History & Observations

Time (EET) Temp. Windchill Dew Point Humidity Pressure Visibility Wind Dir Wind Speed Gust Speed Precip Events Conditions
12:50 AM 50.0 °F - 44.6 °F 82% 29.86 in 6.2 mi Calm Calm - N/A   Partly Cloudy
1:50 AM 48.2 °F - 42.8 °F 82% 29.83 in 6.2 mi WNW 4.6 mph - N/A   Partly Cloudy
2:50 AM 48.2 °F - 42.8 °F 82% 29.80 in 6.2 mi NW 4.6 mph - N/A   Partly Cloudy
3:50 AM 46.4 °F 44.3 °F 42.8 °F 87% 29.80 in 6.2 mi NNW 4.6 mph - N/A   Partly Cloudy
4:50 AM 48.2 °F - 42.8 °F 82% 29.74 in 6.2 mi WNW 4.6 mph - N/A   Partly Cloudy
5:20 AM 48.2 °F - 42.8 °F 82% 29.74 in 6.2 mi NW 4.6 mph - N/A   Partly Cloudy
5:50 AM 50.0 °F - 42.8 °F 76% 29.74 in 6.2 mi WNW 4.6 mph - N/A   Partly Cloudy
6:20 AM 50.0 °F - 42.8 °F 76% 29.74 in 6.2 mi WNW 4.6 mph - N/A   Scattered Clouds
6:50 AM 50.0 °F - 42.8 °F 76% 29.71 in 6.2 mi NW 4.6 mph - N/A   Mostly Cloudy
7:20 AM 50.0 °F - 44.6 °F 82% 29.68 in 6.2 mi West 4.6 mph - N/A   Mostly Cloudy
7:50 AM 51.8 °F - 44.6 °F 76% 29.68 in 6.2 mi North 4.6 mph - N/A   Mostly Cloudy
8:20 AM 59.0 °F - 46.4 °F 63% 29.68 in 6.2 mi North 4.6 mph - N/A   Mostly Cloudy
8:50 AM 62.6 °F - 46.4 °F 55% 29.68 in 6.2 mi Calm Calm - N/A   Mostly Cloudy
9:20 AM 64.4 °F - 46.4 °F 52% 29.68 in 6.2 mi Calm Calm - N/A   Mostly Cloudy
9:50 AM 66.2 °F - 44.6 °F 46% 29.68 in 6.2 mi Calm Calm - N/A   Mostly Cloudy
10:20 AM 71.6 °F - 41.0 °F 33% 29.68 in 6.2 mi South 19.6 mph - N/A   Mostly Cloudy
10:50 AM 69.8 °F - 44.6 °F 40% 29.71 in 6.2 mi SSW 18.4 mph 31.1 mph N/A   Mostly Cloudy
11:20 AM 69.8 °F - 44.6 °F 40% 29.71 in 6.2 mi South 21.9 mph 33.4 mph N/A   Mostly Cloudy
11:50 AM 69.8 °F - 48.2 °F 46% 29.68 in 6.2 mi South 27.6 mph 40.3 mph N/A   Mostly Cloudy
12:20 PM 68.0 °F - 48.2 °F 49% 29.68 in 6.2 mi SSE 29.9 mph 42.6 mph N/A   Mostly Cloudy
12:50 PM 68.0 °F - 50.0 °F 52% 29.68 in 6.2 mi SSE 29.9 mph 42.6 mph N/A   Mostly Cloudy
1:20 PM 66.2 °F - 50.0 °F 56% 29.68 in 6.2 mi South 28.8 mph 40.3 mph N/A   Mostly Cloudy
1:50 PM 66.2 °F - 51.8 °F 60% 29.68 in 6.2 mi South 28.8 mph 40.3 mph N/A   Overcast
2:20 PM 66.2 °F - 53.6 °F 64% 29.65 in 6.2 mi South 29.9 mph 42.6 mph N/A   Overcast
2:50 PM 64.4 °F - 53.6 °F 68% 29.65 in 6.2 mi South 26.5 mph 40.3 mph N/A   Overcast
3:20 PM 64.4 °F - 53.6 °F 68% 29.65 in 6.2 mi South 24.2 mph 35.7 mph N/A   Overcast
3:50 PM 62.6 °F - 53.6 °F 72% 29.65 in 6.2 mi SSE 19.6 mph 31.1 mph N/A   Overcast
4:20 PM 62.6 °F - 53.6 °F 72% 29.65 in 6.2 mi South 17.3 mph - N/A   Overcast
4:50 PM 62.6 °F - 55.4 °F 77% 29.65 in 5.0 mi South 16.1 mph - N/A   Overcast
5:20 PM 62.6 °F - 55.4 °F 77% 29.65 in 5.0 mi South 13.8 mph - N/A   Overcast
5:50 PM 62.6 °F - 55.4 °F 77% 29.65 in 4.3 mi SSE 10.4 mph - N/A   Overcast
6:20 PM 60.8 °F - 57.2 °F 88% 29.65 in 4.3 mi SSE 6.9 mph - N/A   Overcast
6:50 PM 60.8 °F - 55.4 °F 82% 29.65 in 4.3 mi Calm Calm - N/A   Overcast
7:20 PM 59.0 °F - 53.6 °F 82% 29.68 in 6.2 mi Calm Calm - N/A   Scattered Clouds
7:50 PM 57.2 °F - 50.0 °F 77% 29.68 in 6.2 mi Calm Calm - N/A   Scattered Clouds
8:50 PM 55.4 °F - 48.2 °F 77% 29.71 in 6.2 mi Calm Calm - N/A   Scattered Clouds
9:50 PM 57.2 °F - 50.0 °F 77% 29.74 in 6.2 mi Calm Calm - N/A   Scattered Clouds
10:50 PM 53.6 °F - 50.0 °F 88% 29.71 in 6.2 mi Calm Calm - N/A   Scattered Clouds
11:50 PM 53.6 °F - 50.0 °F 88% 29.71 in 6.2 mi Calm Calm - N/A   Scattered Clouds